Skip Page Navigation
NASA JPL Caltech
NASA Logo - Jet Propulsion Laboratory + View the NASA Portal
+ Near-Earth Object (NEO) Program
Search JPL
JPL Home Earth Solar System Stars & Galaxies Technology
JPL Solar System Dynamics
BODIES ORBITS EPHEMERIDES TOOLS PHYSICAL DATA DISCOVERY FAQ SITE MAP
JPL Small-Body Database Browser
Search: [ help ]  
17086 Ruima (1999 JH18)
Classification: Main-belt Asteroid          SPK-ID: 2017086
Ephemeris | Orbit Diagram | Orbital Elements | Physical Parameters | Discovery Circumstances ]

[ hide orbit diagram ]
Orbit Diagram
Note: Make sure you have Java enabled on your browser to see the applet. This applet is provided as a 3D orbit visualization tool. The applet was implemented using 2-body methods, and hence should not be used for determining accurate long-term trajectories (over several years or decades) or planetary encounter circumstances. For accurate long-term ephemerides, please instead use our Horizons system.
Orbit Viewer

Additional Notes: the orbits shown in the applet are color coded. The planets are white lines, and the asteroid/comet is a blue line. The bright white line indicates the portion of the orbit that is above the ecliptic plane, and the darker portion is below the ecliptic plane. Likewise for the asteroid/comet orbit, the light blue indicates the portion above the ecliptic plane, and the dark blue the portion below the ecliptic plane.

Orbit Viewer applet originally written and kindly provided by Osamu Ajiki (AstroArts), and further modified by Ron Baalke (JPL).


Orbital Elements at Epoch 2456400.5 (2013-Apr-18.0) TDB
Reference: JPL 1 (heliocentric ecliptic J2000)
 Element Value Uncertainty (1-sigma)   Units 
e .1466140216328615 6.9439e-08  
a 2.394425407342788 2.0641e-08 AU
q 2.04336906887236 1.685e-07 AU
i 1.739548725865897 6.7698e-06 deg
node 235.0890180365673 0.00021567 deg
peri 271.2039878230469 0.00021789 deg
M 330.2059861729971 2.5908e-05 deg
tp 2456512.502291803047
(2013-Aug-08.00229180)
9.7865e-05 JED
period 1353.319672979189
3.71
1.7499e-05
4.791e-08
d
yr
n .2660125373094579 3.4397e-09 deg/d
Q 2.745481745813217 2.3667e-08 AU
  Orbit Determination Parameters
   # obs. used (total)      793  
   data-arc span      7140 days (19.55 yr)  
   first obs. used      1993-09-16  
   last obs. used      2013-04-04  
   planetary ephem.      DE405  
   SB-pert. ephem.      SB405-CPV-2  
   condition code      0  
   fit RMS      .5381  
   data source      ORB  
   producer      Otto Matic  
   solution date      2013-Apr-29 14:13:40  

Additional Information
 Earth MOID = 1.05587 AU 
 T_jup = 3.515 
[ show covariance matrix ]

Ephemeris | Orbit Diagram | Orbital Elements | Physical Parameters | Discovery Circumstances ]

Physical Parameter Table
Parameter Symbol Value Units Sigma Reference Notes
absolute magnitude H 14.7 mag n/a PDS3 (MPO 3022)  

17086 Ruima           Discovered 1999 May 10 by the Lincoln Laboratory Near-Earth Asteroid Research Team at Socorro.
Rui Ma (b. 1985) was awarded fourth place in the 2003 Intel International Science and Engineering Fair for his computer science team project. He attends the Vincent Massey Secondary School, Windsor, Ontario, Canada.
NOTE: some special characters may not display properly (any characters within {} are an attempt to place the proper accent above a character)
Reference: 20040614/MPCPages.arcLast Updated: 2009-12-11

Alternate Designations
 1999 JH18 = 1993 RD5 
Ephemeris | Orbit Diagram | Orbital Elements | Physical Parameters | Discovery Circumstances ]
ABOUT SSD CREDITS/AWARDS PRIVACY/COPYRIGHT GLOSSARY LINKS
FirstGov 2013-May-22 09:15 UT
(server date/time)  
NASA Home Page
Site Manager:   Donald K. Yeomans
Webmaster  Alan B. Chamberlin